Regional Weather Roundup
Issued by NWS

Home | Current Version | Previous Version | Text Only | Print | Product List | Glossary Off
Versions: 1 2 3 4 5 6 7 8 9 10 11 12 13 14 15 16 17 18 19 20 21 22 23 24 25 26 27 28 29 30 31 32 33 34 35 36 37 38 39 40 41 42 43 44 45 46 47 48 49 50

583
ASUS43 KFSD 271002
RWRSD

WEATHER ROUNDUP FOR SOUTH DAKOTA
NATIONAL WEATHER SERVICE SIOUX FALLS SD
400 AM CST MON FEB 27 2017

NOTE: "FAIR" INDICATES FEW OR NO CLOUDS BELOW 12,000 FEET WITH NO
SIGNIFICANT WEATHER AND/OR OBSTRUCTIONS TO VISIBILITY.


SDZ001>005-009-010-012>017-271100-
NORTHWEST AND NORTH CENTRAL SOUTH DAKOTA

CITY           SKY/WX    TMP DP  RH WIND       PRES   REMARKS
BUFFALO          N/A     23  20  88 SE7       29.62F WCI  15
FAITH            N/A     24  22  91 E9        29.73F WCI  14
MOBRIDGE       CLOUDY    24  18  77 NE3       29.78F
$$

SDZ012>016-024>037-041>051-057-063-072>074-271100-
SOUTHWEST AND SOUTH CENTRAL SOUTH DAKOTA

CITY           SKY/WX    TMP DP  RH WIND       PRES   REMARKS
RAPID CTY ARPT CLOUDY    26  14  60 S8        29.68F WCI  18
PIERRE         CLOUDY    21  15  78 CALM      29.79F
CUSTER         CLOUDY    21   3  45 SW8G16    29.58F WCI  11
ELLSWORTH AFB  CLOUDY    28  13  52 S9        29.66F WCI  19
PHILIP         CLOUDY    19  15  84 SE5       29.76F WCI  12
PINE RIDGE     CLOUDY    21  11  65 SW10      29.72F WCI  10
SPEARFISH      FAIR      19  10  68 SE5       29.63F WCI  13
WINNER         FAIR      22  11  62 SW17G25   29.82F WCI   8
$$

SDZ004>011-016>023-039-040-271100-
NORTHEAST SOUTH DAKOTA

CITY           SKY/WX    TMP DP  RH WIND       PRES   REMARKS
ABERDEEN       MOCLDY    22  18  85 N7        29.85S WCI  13
WATERTOWN      CLEAR     23  19  85 S7        29.83S WCI  15
BROOKINGS      CLEAR     23  19  85 SE3       29.85F
SISSETON         N/A     20  19  96 CALM      29.87S
$$

SDZ017-020-022-023-036>040-048>070-271100-
SOUTHEAST SOUTH DAKOTA

CITY           SKY/WX    TMP DP  RH WIND       PRES   REMARKS
SIOUX FALLS    CLEAR     26  20  77 SW7       29.89F WCI  18
HURON          CLEAR     20  17  88 SE5       29.85S WCI  13
CHAMBERLAIN    CLEAR     21  16  81 S5        29.84S WCI  15
MITCHELL       CLEAR     23  17  78 S6        29.87F WCI  16
YANKTON        CLEAR     19  14  79 SE6       29.91S WCI  11
$$

ABBREVIATIONS USED IN REMARKS
   TC - TEMPERATURE IN CELSIUS
  WCI - WIND CHILL INDEX
   HX - HEAT INDEX
  VSB - VISIBILITY





USA.gov is the U.S. government's official web portal to all federal, state and local government web resources and services.